This is the latest recevied weather packets stored in our database for station/object WV8BRW. If no packets are shown the sender has not sent any weather packets the latest 10 day(s).
| Time | Temp. | Humidity | Pressure | Rain* | Wind** | Luminosity | Snow |
|---|---|---|---|---|---|---|---|
| 1777681450 | 11.67° C | 70% | 1013.3 hPa | 0 mm | - | 1 W/m² | - |
| 1777681147 | 11.67° C | 70% | 1013.1 hPa | 0 mm | - | 1 W/m² | - |
| 1777680844 | 11.67° C | 70% | 1013.2 hPa | 0 mm | - | 0 W/m² | - |
| 1777680541 | 11.67° C | 70% | 1013.1 hPa | 0 mm | - | 1 W/m² | - |
| 1777680240 | 11.67° C | 71% | 1013.1 hPa | 0 mm | - | 2 W/m² | - |
| 1777679935 | 12.22° C | 70% | 1012.7 hPa | 0 mm | - | 2 W/m² | - |
| 1777679631 | 12.22° C | 69% | 1012.7 hPa | 0 mm | - | 10 W/m² | - |
| 1777679327 | 12.22° C | 68% | 1012.7 hPa | 0 mm | - | 19 W/m² | - |
| 1777679024 | 12.22° C | 67% | 1012.4 hPa | 0 mm | - | 17 W/m² | - |
| 1777678722 | 12.78° C | 66% | 1012.1 hPa | 0 mm | - | 32 W/m² | - |
| 1777678419 | 12.78° C | 65% | 1012.2 hPa | 0 mm | - | 56 W/m² | - |
| 1777678115 | 12.78° C | 63% | 1011.8 hPa | 0 mm | - | 62 W/m² | - |
| 1777677812 | 13.33° C | 62% | 1011.9 hPa | 0 mm | - | 65 W/m² | - |
| 1777677510 | 13.33° C | 62% | 1011.9 hPa | 0 mm | - | 49 W/m² | - |
| 1777677207 | 13.33° C | 60% | 1011.9 hPa | 0 mm | - | 69 W/m² | - |
| 1777676906 | 13.33° C | 63% | 1011.9 hPa | 0 mm | - | 72 W/m² | - |
| 1777676605 | 13.33° C | 62% | 1011.7 hPa | 0 mm | - | 83 W/m² | - |
| 1777676302 | 13.33° C | 62% | 1011.4 hPa | 0 mm | - | 74 W/m² | - |
| 1777675999 | 13.33° C | 64% | 1011.7 hPa | 0 mm | - | 79 W/m² | - |
| 1777675695 | 13.89° C | 63% | 1012 hPa | 0 mm | - | 102 W/m² | - |
| 1777675393 | 13.33° C | 65% | 1011.6 hPa | 0 mm | - | 131 W/m² | - |
| 1777675089 | 13.33° C | 68% | 1011.9 hPa | 0 mm | - | 103 W/m² | - |
| 1777674785 | 13.33° C | 67% | 1011.7 hPa | 0 mm | - | 46 W/m² | - |
| 1777674481 | 13.33° C | 66% | 1011.6 hPa | 0 mm | - | 38 W/m² | - |
| 1777674179 | 13.33° C | 66% | 1011.8 hPa | 0 mm | - | 42 W/m² | - |
* Rain latest hour (hover to see other rain measurements)
** Current wind speed in m/s (hover to see current wind gust speed)